Powrót do katalogu

FENGYUN 1C DEB

AktywnyPO
NORAD 30892·DEBRIS·🇨🇳 China

Wystrzelony May 10, 1999 z Taiyuan Satellite Launch Center

Loading…

Następne Przeloty (najbliższe 24 godziny)

TLE

Starzejące sięSource: Space-Track

Epoka: Sep 7, 2026, 15:17 UTC

1 30892U 99025AYE 26250.63707440  .00000386  00000-0  20718-3 0  9991
2 30892  99.6925 223.3894 0038237 157.9401 202.3428 14.19333474681178

Śledź FENGYUN 1C DEB w czasie rzeczywistym z AllMySat

Download on the App Store